1531598400.88,63268,17.38,74040.5,4.07,2.99,2.99,0,*77
1531598402.11,63269,17.38,74036.5,4.05,2.99,2.89,0,*75
1531598403.32,63270,17.38,74042.3,4.05,2.91,2.91,0,*7C
1531598404.52,63271,17.38,74038.0,4.05,2.99,2.99,0,*7D
1531598405.75,63272,17.38,74036.8,4.03,3.11,3.11,0,*78
1531598406.98,63273,17.38,74032.5,4.03,3.11,3.07,0,*7E
1531598408.21,63274,17.38,74034.3,4.03,3.07,3.07,0,*7E
1531598409.39,63275,17.38,74034.8,4.03,2.95,2.91,0,*7B
1531598410.62,63276,17.38,74036.3,4.03,3.07,3.07,0,*7C
1531598411.84,63277,17.38,74034.0,4.03,3.19,3.11,0,*75
1531598413.1,63278,17.38,74036.5,4.01,3.07,3.11,0,*77
1531598414.32,63279,17.38,74036.8,4.03,3.19,3.19,0,*73
1531598415.52,63280,17.38,74038.0,4.03,3.23,3.29,0,*7F
1531598416.79,63281,17.38,74038.3,4.01,3.07,3.07,0,*76
1531598418.02,63282,17.38,74038.0,4.01,3.07,2.95,0,*7F
1531598419.24,63283,17.38,74036.8,4.03,3.19,3.19,0,*76
1531598420.46,63284,17.38,74032.8,4.03,3.19,3.19,0,*71
1531598421.72,63285,17.38,74034.5,4.01,3.15,3.15,0,*72
1531598422.99,63286,17.38,74040.0,4.01,3.15,3.15,0,*71
1531598424.17,63287,17.38,74038.8,4.03,3.29,3.29,0,*72
1531598425.37,63288,17.38,74036.5,4.01,3.25,3.25,0,*7F
1531598426.58,63289,17.38,74042.3,4.01,3.25,3.25,0,*7E
1531598427.79,63290,17.38,74040.3,4.01,3.25,3.25,0,*76
1531598429.04,63291,17.38,74042.0,4.01,3.19,3.07,0,*78
1531598430.21,63292,17.38,74044.0,4.03,2.95,2.95,0,*76
1531598431.44,63293,17.38,74040.5,4.03,3.07,3.19,0,*78
1531598432.7,63294,17.38,74036.5,4.01,3.07,3.07,0,*72
1531598433.94,63295,17.38,74030.0,4.01,3.07,2.95,0,*79
1531598435.17,63296,17.38,74026.3,4.01,3.03,2.95,0,*7E
1531598436.4,63297,17.38,74022.8,4.01,3.25,3.19,0,*7E
1531598437.6,63298,17.38,74016.0,3.99,3.25,3.19,0,*77
1531598438.78,63299,17.38,74020.3,3.99,3.25,3.25,0,*79
1531598439.99,63300,17.38,74028.0,3.99,3.19,3.25,0,*77
1531598441.2,63301,17.38,74028.3,4.01,3.25,3.29,0,*73
1531598442.4,63302,17.38,74032.8,4.01,3.25,3.29,0,*70
1531598443.61,63303,17.38,74024.5,4.01,3.29,3.29,0,*7D
1531598444.84,63304,17.38,74028.8,4.03,3.37,3.37,0,*78
1531598446.04,63305,17.38,74034.3,3.99,3.33,3.29,0,*76
1531598447.3,63306,17.44,74038.0,4.01,3.33,3.33,0,*78
1531598448.55,63307,17.38,74036.5,4.01,3.33,3.33,0,*79
1531598449.78,63308,17.38,74040.5,4.03,3.37,3.37,0,*74
1531598451.03,63309,17.38,74042.3,4.01,3.33,3.33,0,*77
1531598452.29,63310,17.38,74040.5,4.01,3.33,3.33,0,*7F
1531598453.54,63311,17.38,74036.3,4.01,3.33,3.33,0,*7E
1531598454.81,63312,17.38,74036.5,4.01,3.41,3.41,0,*7D
1531598456.03,63313,17.44,74044.8,4.03,3.45,3.49,0,*72
1531598457.26,63314,17.38,74040.0,4.03,3.49,3.45,0,*75
1531598458.52,63315,17.38,74042.3,4.01,3.41,3.41,0,*7A
1531598459.75,63316,17.38,74042.5,4.01,3.33,3.29,0,*72
1531598460.98,63317,17.38,74042.0,4.03,3.41,3.37,0,*7B
1531598462.21,63318,17.38,74038.8,4.03,3.37,3.33,0,*71
1531598463.44,63319,17.38,74038.8,4.03,3.37,3.33,0,*70
1531598464.66,63320,17.38,74038.8,4.03,3.37,3.37,0,*7E
1531598465.89,63321,17.38,74036.5,4.03,3.45,3.37,0,*7A
1531598467.11,63322,17.38,74034.8,4.03,3.37,3.37,0,*7C
1531598468.34,63323,17.38,74034.3,4.03,3.37,3.37,0,*7D
1531598469.56,63324,17.38,74032.0,4.03,3.33,3.33,0,*7A
1531598470.79,63325,17.38,74034.5,4.03,3.33,3.33,0,*7B
1531598472.01,63326,17.38,74034.3,4.03,3.37,3.37,0,*78
1531598473.22,63327,17.44,74034.0,4.01,3.29,3.29,0,*7B
1531598474.45,63328,17.38,74032.3,4.05,3.25,3.33,0,*77
1531598475.63,63329,17.38,74030.8,4.03,3.29,3.29,0,*77
1531598476.84,63330,17.38,74030.8,4.01,3.25,3.25,0,*7D
1531598478.02,63331,17.38,74028.5,4.03,3.29,3.29,0,*7E
1531598479.23,63332,17.38,74024.0,4.01,3.25,3.25,0,*7F
1531598480.45,63333,17.38,74024.8,4.01,3.33,3.25,0,*79
1531598481.66,63334,17.38,74024.5,4.03,3.29,3.33,0,*70
1531598482.84,63335,17.38,74028.5,4.03,3.29,3.29,0,*7A
1531598484.02,63336,17.38,74030.5,4.03,3.29,3.29,0,*79
1531598485.24,63337,17.38,74028.8,4.03,3.23,3.23,0,*78
1531598486.47,63338,17.38,74028.3,4.01,3.25,3.19,0,*7A
1531598487.67,63339,17.38,74024.8,4.03,3.23,3.29,0,*7C
1531598488.85,63340,17.38,74026.3,4.03,3.29,3.29,0,*78
1531598490.03,63341,17.38,74024.5,4.03,3.29,3.29,0,*79
1531598491.24,63342,17.38,74028.0,4.01,3.25,3.25,0,*78
1531598492.46,63343,17.38,74030.5,4.01,3.25,3.19,0,*76
1531598493.69,63344,17.38,74024.8,4.01,3.25,3.19,0,*71
1531598494.9,63345,17.38,74026.3,4.03,3.23,3.29,0,*77
1531598496.1,63346,17.38,74026.3,4.01,3.25,3.25,0,*7C
1531598497.28,63347,17.38,74028.3,4.03,3.29,3.29,0,*7F
1531598498.49,63348,17.38,74028.3,4.01,3.25,3.29,0,*7E
1531598499.72,63349,17.38,74022.0,4.03,3.37,3.33,0,*75
1531598500.94,63350,17.38,74028.3,4.01,3.33,3.29,0,*70
1531598502.2,63351,17.38,74022.5,4.01,3.33,3.33,0,*7A
1531598503.45,63352,17.38,74030.8,4.01,3.33,3.37,0,*7D
1531598504.69,63353,17.38,74028.3,4.01,3.41,3.29,0,*76
1531598505.91,63354,17.38,74024.8,4.03,3.37,3.33,0,*79
1531598507.11,63355,17.38,74028.0,4.03,3.33,3.29,0,*77
1531598508.38,63356,17.38,74032.3,4.01,3.41,3.33,0,*78
1531598509.6,63357,17.38,74028.3,4.03,3.37,3.37,0,*7E
1531598510.82,63358,17.38,74024.8,4.03,3.45,3.37,0,*74
1531598512.05,63359,17.38,74026.8,4.03,3.45,3.33,0,*71
1531598513.28,63360,17.38,74028.8,4.03,3.49,3.49,0,*7A
1531598514.5,63361,17.38,74026.3,4.03,3.49,3.45,0,*77
1531598515.73,63362,17.38,74024.3,4.03,3.49,3.45,0,*74
1531598516.96,63363,17.38,74022.8,4.03,3.45,3.45,0,*79
1531598518.18,63364,17.38,74018.0,4.03,3.45,3.49,0,*72
1531598519.41,63365,17.38,74018.0,4.03,3.45,3.45,0,*7F
1531598520.64,63366,17.38,74048.5,4.03,3.45,3.45,0,*7C
1531598521.9,63367,17.38,74036.3,4.05,3.49,3.49,0,*7B
1531598523.16,63368,17.44,74018.5,4.05,3.41,3.41,0,*74
1531598524.43,63369,17.44,74004.3,4.05,3.41,3.41,0,*75
1531598525.67,63370,17.38,74016.3,4.05,3.49,3.53,0,*76
1531598526.93,63371,17.38,73998.3,4.05,3.49,3.49,0,*7C
1531598528.16,63372,17.38,74030.0,4.07,3.41,3.37,0,*7C
1531598529.42,63373,17.38,74028.3,4.05,3.41,3.41,0,*7E
1531598530.65,63374,17.38,74014.3,4.07,3.49,3.49,0,*7B
1531598531.88,63375,17.44,74018.5,4.03,3.45,3.49,0,*72
1531598533.1,63376,17.38,74024.0,4.07,3.53,3.53,0,*79
1531598534.35,63377,17.38,74024.5,4.05,3.49,3.49,0,*7A
1531598535.61,63378,17.38,74020.5,4.05,3.49,3.41,0,*7D
1531598536.86,63379,17.38,74030.0,4.05,3.49,3.49,0,*74
1531598538.12,63380,17.38,74018.0,4.05,3.49,3.49,0,*72
1531598539.37,63381,17.38,74022.3,4.05,3.37,3.37,0,*73
1531598540.64,63382,17.38,74012.8,4.05,3.41,3.41,0,*70
1531598541.9,63383,17.38,74010.3,4.05,3.41,3.41,0,*71
1531598543.12,63384,17.38,74024.0,4.07,3.53,3.53,0,*74
1531598544.38,63385,17.38,74022.0,4.05,3.49,3.41,0,*7F
1531598545.64,63386,17.38,74010.3,4.05,3.49,3.41,0,*7C
1531598546.89,63387,17.38,74014.5,4.05,3.49,3.49,0,*75
1531598548.14,63388,17.38,74020.0,4.05,3.53,3.53,0,*7A
1531598549.37,63389,17.38,74014.0,4.07,3.53,3.49,0,*72
1531598550.59,63390,17.38,74022.8,4.07,3.49,3.49,0,*71
1531598551.85,63391,17.38,74028.8,4.05,3.49,3.49,0,*72
1531598553.07,63392,17.38,74028.8,4.07,3.53,3.37,0,*71
1531598554.3,63393,17.44,74038.0,4.07,3.53,3.49,0,*79
1531598555.53,63394,17.38,74034.3,4.07,3.49,3.41,0,*7D
1531598556.78,63395,17.38,74034.3,4.05,3.53,3.49,0,*7D
1531598558.02,63396,17.38,74034.0,4.07,3.41,3.41,0,*77
1531598559.27,63397,17.38,74030.0,4.05,3.53,3.49,0,*7F
1531598560.5,63398,17.38,74030.5,4.07,3.49,3.49,0,*79
1531598561.72,63399,17.38,74038.0,4.07,3.49,3.53,0,*73
1531598562.94,63400,17.44,74038.5,4.07,3.53,3.37,0,*7D
1531598564.17,63401,17.44,74034.3,4.07,3.49,3.37,0,*77
1531598565.4,63402,17.38,74030.0,4.07,3.41,3.37,0,*7C
1531598566.65,63403,17.38,74024.3,4.05,3.49,3.37,0,*77
1531598567.91,63404,17.44,74030.8,4.05,3.41,3.37,0,*78
1531598569.15,63405,17.38,74028.3,4.07,3.41,3.41,0,*7A
1531598570.41,63406,17.44,74030.8,4.05,3.53,3.41,0,*78
1531598571.63,63407,17.44,74032.8,4.07,3.53,3.53,0,*78
1531598572.85,63408,17.38,74028.3,4.07,3.53,3.53,0,*77
1531598574.07,63409,17.44,74028.3,4.07,3.53,3.53,0,*76
1531598575.3,63410,17.38,74026.8,4.07,3.41,3.37,0,*7F
1531598576.52,63411,17.44,74030.8,4.07,3.49,3.37,0,*76
1531598577.76,63412,17.38,74034.0,4.07,3.41,3.37,0,*7D
1531598578.99,63413,17.38,74032.5,4.07,3.49,3.41,0,*75
1531598580.24,63414,17.38,74032.5,4.05,3.41,3.37,0,*79
1531598581.48,63415,17.38,74038.0,4.07,3.41,3.37,0,*7A
1531598582.71,63416,17.38,74042.8,4.07,3.41,3.49,0,*70
1531598583.94,63417,17.44,74030.5,4.07,3.37,3.37,0,*79
1531598585.17,63418,17.38,74034.5,4.07,3.37,3.41,0,*77
1531598586.4,63419,17.44,74034.8,4.07,3.37,3.37,0,*77
1531598587.62,63420,17.38,74032.3,4.07,3.33,3.37,0,*79
1531598588.88,63421,17.38,74032.0,4.05,3.41,3.37,0,*7F
1531598590.11,63422,17.38,74032.3,4.07,3.41,3.37,0,*7E
1531598591.37,63423,17.38,74036.8,4.05,3.37,3.37,0,*7C
1531598592.61,63424,17.38,74038.5,4.07,3.41,3.41,0,*79
1531598593.84,63425,17.38,74036.8,4.07,3.41,3.37,0,*79
1531598595.07,63426,17.38,74032.8,4.07,3.41,3.41,0,*7B
1531598596.3,63427,17.38,74034.5,4.07,3.37,3.37,0,*7A
1531598597.51,63428,17.38,74034.3,4.07,3.37,3.25,0,*76
1531598598.73,63429,17.38,74036.5,4.07,3.33,3.33,0,*74
1531598599.99,63430,17.38,74036.8,4.05,3.49,3.37,0,*77
1531598601.22,63431,17.44,74036.8,4.07,3.41,3.37,0,*7C
1531598602.44,63432,17.38,74038.0,4.07,3.49,3.49,0,*7E
1531598603.67,63433,17.38,74042.3,4.07,3.49,3.49,0,*7F
1531598604.91,63434,17.38,74040.0,4.07,3.41,3.41,0,*78
1531598606.17,63435,17.38,74036.5,4.05,3.49,3.41,0,*73
1531598607.4,63436,17.44,74046.5,4.07,3.49,3.41,0,*72
1531598608.64,63437,17.44,74044.3,4.07,3.41,3.41,0,*7B
1531598609.87,63438,17.44,74046.0,4.07,3.41,3.37,0,*75
1531598611.11,63439,17.38,74042.0,4.07,3.41,3.41,0,*75
1531598612.34,63440,17.38,74040.0,4.07,3.41,3.41,0,*7B
1531598613.57,63441,17.38,74038.8,4.07,3.53,3.49,0,*71
1531598614.8,63442,17.44,74040.3,4.07,3.49,3.41,0,*71
1531598616.03,63443,17.38,74036.3,4.07,3.49,3.41,0,*70
1531598617.26,63444,17.44,74040.5,4.07,3.49,3.49,0,*7F
1531598618.49,63445,17.44,74038.5,4.07,3.33,3.33,0,*7E
1531598619.72,63446,17.44,74040.8,4.07,3.33,3.33,0,*7D
1531598620.97,63447,17.38,74036.5,4.05,3.37,3.37,0,*7E
1531598622.2,63448,17.38,74036.5,4.07,3.37,3.37,0,*73
1531598623.42,63449,17.38,74040.5,4.07,3.37,3.37,0,*72
1531598624.65,63450,17.38,74040.5,4.07,3.37,3.37,0,*7A
1531598625.89,63451,17.38,74038.5,4.07,3.41,3.41,0,*7B
1531598627.12,63452,17.44,74040.5,4.07,3.37,3.37,0,*78
1531598628.36,63453,17.44,74040.8,4.07,3.41,3.41,0,*79
1531598629.61,63454,17.44,74040.3,4.05,3.49,3.41,0,*74
1531598630.86,63455,17.44,74042.0,4.05,3.49,3.37,0,*74
1531598632.09,63456,17.38,74042.8,4.07,3.53,3.49,0,*77
1531598633.32,63457,17.38,74032.3,4.07,3.37,3.37,0,*7D
1531598634.55,63458,17.44,74036.5,4.07,3.37,3.37,0,*72
1531598635.78,63459,17.38,74034.5,4.07,3.41,3.49,0,*7B
1531598637.01,63460,17.44,74030.5,4.07,3.49,3.49,0,*79
1531598638.23,63461,17.44,74036.5,4.07,3.49,3.49,0,*78
1531598639.49,63462,17.38,74032.3,4.05,3.41,3.49,0,*71
1531598640.75,63463,17.44,74034.0,4.05,3.41,3.53,0,*7B
1531598641.98,63464,17.44,74034.3,4.07,3.37,3.37,0,*7D
1531598643.22,63465,17.44,74032.8,4.07,3.41,3.41,0,*7C
1531598644.44,63466,17.38,74034.5,4.07,3.49,3.37,0,*76
1531598645.67,63467,17.38,74028.0,4.07,3.37,3.37,0,*7E
1531598646.9,63468,17.44,74034.8,4.07,3.41,3.37,0,*70
1531598648.16,63469,17.38,74032.5,4.05,3.41,3.41,0,*72
1531598649.39,63470,17.38,74038.8,4.07,3.41,3.37,0,*79
1531598650.63,63471,17.38,74032.5,4.07,3.41,3.37,0,*78
1531598651.83,63472,17.38,74032.5,4.07,3.33,3.25,0,*7D
1531598653.06,63473,17.38,74026.5,4.07,3.11,3.11,0,*7B
1531598654.29,63474,17.44,74038.3,4.07,3.15,3.11,0,*78
1531598655.49,63475,17.38,74032.5,4.07,3.25,3.23,0,*7B
1531598656.75,63476,17.44,74032.3,4.05,3.23,3.11,0,*7D
1531598657.99,63477,17.44,74030.5,4.05,3.25,3.15,0,*7E
1531598659.21,63478,17.44,74032.8,4.05,3.25,3.23,0,*74
1531598660.41,63479,17.44,74034.0,4.07,3.25,3.23,0,*77
1531598661.65,63480,17.44,74034.3,4.05,3.25,3.15,0,*76
1531598662.91,63481,17.44,74030.3,4.05,2.89,2.81,0,*7C
1531598664.16,63482,17.38,74024.5,4.05,2.81,2.77,0,*7E
1531598665.38,63483,17.38,74028.8,4.03,2.89,2.85,0,*7C
1531598666.59,63484,17.44,74026.0,4.03,3.07,2.99,0,*71
1531598667.81,63485,17.44,74024.0,4.03,2.55,2.55,0,*76
1531598669.04,63486,17.44,74020.0,4.03,2.85,2.73,0,*7C
1531598670.26,63487,17.44,74024.0,4.03,2.85,2.85,0,*74
1531598671.49,63488,17.44,74020.0,4.01,2.91,2.85,0,*7C
1531598672.68,63489,17.44,74026.5,4.03,2.95,2.85,0,*7B
1531598673.89,63490,17.38,74022.8,4.01,2.95,2.91,0,*74
1531598675.11,63491,17.38,74018.8,4.01,2.95,2.85,0,*70
1531598676.32,63492,17.44,74020.3,4.01,2.95,2.91,0,*76
1531598677.55,63493,17.44,74018.5,4.01,2.95,2.81,0,*76
1531598678.78,63494,17.38,74014.0,4.01,3.03,2.91,0,*7E
1531598680.03,63495,17.38,74012.5,4.01,2.85,2.85,0,*75
1531598681.3,63496,17.44,74018.3,4.01,3.15,3.03,0,*71
1531598682.56,63497,17.38,74018.0,4.01,3.15,3.07,0,*74
1531598683.82,63498,17.44,74016.5,4.01,3.15,3.07,0,*7B
1531598685.02,63499,17.44,74018.3,4.03,3.11,2.99,0,*7A
1531598686.29,63500,17.44,74024.5,4.01,3.15,3.03,0,*7F
1531598687.55,63501,17.44,74018.8,4.01,2.81,2.73,0,*74
1531598688.77,63502,17.38,74016.8,3.99,2.69,2.69,0,*7C
1531598690.02,63503,17.44,74016.5,3.97,2.55,2.55,0,*73
1531598691.26,63504,17.38,74020.5,3.99,2.59,2.59,0,*7A
1531598692.47,63505,17.38,74018.0,3.99,2.61,2.59,0,*70
1531598693.72,63506,17.38,74018.5,3.97,2.55,2.55,0,*76
1531598694.97,63507,17.44,74022.3,3.97,2.77,2.69,0,*78
1531598696.22,63508,17.38,74022.0,3.97,2.89,2.77,0,*79
1531598697.47,63509,17.44,74026.5,3.95,2.81,2.77,0,*72
1531598698.72,63510,17.38,74026.8,3.95,2.55,2.55,0,*73
1531598699.95,63511,17.44,74030.5,3.93,2.51,2.51,0,*74
1531598701.2,63512,17.44,74028.5,3.95,2.43,2.39,0,*7C
1531598702.43,63513,17.38,74026.8,3.93,2.51,2.43,0,*75
1531598703.68,63514,17.44,74024.5,3.95,2.81,2.77,0,*7E
1531598704.85,63515,17.44,74022.3,3.93,2.99,2.95,0,*7C
1531598706.02,63516,17.38,74022.0,3.93,2.95,2.95,0,*73
1531598707.23,63517,17.38,74018.0,3.93,3.19,3.11,0,*7A
1531598708.45,63518,17.38,74018.5,3.93,3.19,3.19,0,*7D
1531598709.64,63519,17.38,74018.5,3.93,3.33,3.25,0,*7B
1531598710.84,63520,17.44,74018.0,3.93,3.25,3.23,0,*70
1531598712.06,63521,17.38,74008.8,3.93,3.37,3.33,0,*73
1531598713.26,63522,17.44,74010.3,3.95,3.25,3.29,0,*7E
1531598714.46,63523,17.38,74010.0,3.95,3.25,3.25,0,*73
1531598715.66,63524,17.44,74008.0,3.95,3.29,3.29,0,*74
1531598716.86,63525,17.38,74010.8,3.93,3.33,3.25,0,*74
1531598718.06,63526,17.44,74018.0,3.95,3.29,3.29,0,*76
1531598719.26,63527,17.44,74008.8,3.95,3.29,3.25,0,*7B
1531598720.48,63528,17.44,74008.3,3.93,3.33,3.33,0,*7E
1531598721.73,63529,17.38,74008.0,3.95,3.37,3.37,0,*79
1531598722.93,63530,17.38,74002.8,3.97,3.29,3.25,0,*7F
1531598724.17,63531,17.38,74004.0,3.97,3.29,3.37,0,*7D
1531598725.42,63532,17.38,74008.0,3.97,3.37,3.37,0,*71
1531598726.65,63533,17.38,74006.8,3.97,3.37,3.29,0,*7F
1531598727.86,63534,17.44,74010.3,3.97,3.25,3.29,0,*7B
1531598729.09,63535,17.38,74004.5,3.97,3.25,3.23,0,*70
1531598730.32,63536,17.38,74012.5,3.97,3.25,3.23,0,*73
1531598731.52,63537,17.38,74014.5,3.95,3.29,3.29,0,*76
1531598732.74,63538,17.38,74016.3,3.95,3.23,3.25,0,*7F
1531598734.0,63539,17.44,74018.8,3.97,3.23,3.15,0,*7F
1531598735.26,63540,17.38,74022.3,3.97,3.23,3.23,0,*74
1531598736.53,63541,17.38,74020.0,3.97,3.15,3.15,0,*75
1531598737.78,63542,17.38,74016.8,3.97,3.23,3.23,0,*76
1531598739.03,63543,17.44,74022.0,3.95,3.23,3.23,0,*75
1531598740.23,63544,17.44,74024.0,3.95,3.29,3.25,0,*7E
1531598741.44,63545,17.38,74018.3,3.97,3.25,3.25,0,*71
1531598742.64,63546,17.44,74018.8,3.97,3.29,3.25,0,*7E
1531598743.87,63547,17.44,74020.3,3.97,3.37,3.29,0,*7C
1531598745.13,63548,17.38,74016.0,3.97,3.37,3.37,0,*7C
1531598746.37,63549,17.38,74018.3,3.99,3.41,3.45,0,*77
1531598747.61,63550,17.44,74022.0,3.99,3.41,3.41,0,*7B
1531598748.86,63551,17.44,74022.8,3.97,3.37,3.37,0,*74
1531598750.07,63552,17.38,74020.8,3.97,3.29,3.25,0,*7B
1531598751.28,63553,17.44,74024.3,3.97,3.29,3.25,0,*7A
1531598752.46,63554,17.44,74026.5,3.99,3.29,3.29,0,*7F
1531598753.69,63555,17.44,74020.5,3.97,3.25,3.23,0,*76
1531598754.9,63556,17.44,74018.3,3.97,3.25,3.25,0,*73
1531598756.16,63557,17.44,74016.8,3.97,3.37,3.37,0,*72
1531598757.41,63558,17.44,74012.3,3.97,3.41,3.37,0,*7C
1531598758.67,63559,17.44,74016.5,3.97,3.41,3.37,0,*7D
1531598759.91,63560,17.38,74012.8,3.99,3.41,3.41,0,*78
1531598761.16,63561,17.38,74016.8,3.99,3.41,3.41,0,*79
1531598762.41,63562,17.38,74016.8,3.97,3.41,3.37,0,*75
1531598763.65,63563,17.38,74018.8,3.99,3.45,3.45,0,*7B
1531598764.89,63564,17.44,74020.5,3.99,3.41,3.45,0,*78
1531598766.13,63565,17.44,74024.5,3.99,3.41,3.41,0,*7D
1531598767.37,63566,17.38,74018.0,3.99,3.41,3.33,0,*7B
1531598768.55,63567,17.38,74018.0,3.99,3.25,3.25,0,*7F
1531598769.78,63568,17.44,74020.5,3.99,3.33,3.33,0,*70
1531598771.01,63569,17.38,74018.3,3.99,3.33,3.33,0,*71
1531598772.25,63570,17.38,74016.0,3.99,3.45,3.41,0,*7D
1531598773.49,63571,17.44,74018.0,3.99,3.41,3.41,0,*78
1531598774.73,63572,17.38,74014.5,3.99,3.41,3.41,0,*7B
1531598775.97,63573,17.44,74016.5,3.99,3.41,3.41,0,*7A
1531598777.23,63574,17.38,74012.0,4.01,3.33,3.41,0,*7E
1531598778.46,63575,17.44,74016.8,4.01,3.33,3.29,0,*71
1531598779.67,63576,17.38,74012.8,3.99,3.33,3.29,0,*74
1531598780.9,63577,17.44,74016.8,3.99,3.41,3.33,0,*7B
1531598782.14,63578,17.38,74018.3,3.99,3.41,3.45,0,*75
1531598783.38,63579,17.38,74016.5,3.99,3.41,3.41,0,*70
1531598784.62,63580,17.44,74020.0,3.99,3.41,3.41,0,*76
1531598785.86,63581,17.38,74016.3,3.99,3.33,3.33,0,*77
1531598787.04,63582,17.44,74020.5,3.99,3.29,3.29,0,*74
1531598788.23,63583,17.44,74016.8,3.99,3.29,3.29,0,*75
1531598789.44,63584,17.44,74022.5,3.99,3.41,3.29,0,*7C
1531598790.65,63585,17.44,74018.0,3.99,3.29,3.33,0,*78
1531598791.86,63586,17.38,74016.5,3.99,3.29,3.33,0,*7B
1531598793.1,63587,17.44,74016.8,3.99,3.41,3.33,0,*74
1531598794.32,63588,17.38,74016.3,4.01,3.33,3.29,0,*73
1531598795.58,63589,17.38,74018.5,4.01,3.33,3.33,0,*79
1531598796.83,63590,17.38,74016.3,4.01,3.33,3.33,0,*71
1531598798.06,63591,17.38,74016.8,4.01,3.33,3.29,0,*7B
1531598799.32,63592,17.38,74016.3,4.01,3.33,3.33,0,*73
1531598800.58,63593,17.44,74018.8,4.01,3.41,3.41,0,*72
1531598801.84,63594,17.44,74020.3,4.01,3.45,3.41,0,*71
1531598803.08,63595,17.38,74018.5,3.99,3.33,3.45,0,*73
1531598804.31,63596,17.38,74018.8,3.99,3.45,3.41,0,*75
1531598805.55,63597,17.44,74020.3,3.99,3.41,3.41,0,*70
1531598806.79,63598,17.38,74016.5,3.99,3.45,3.41,0,*7B
1531598808.02,63599,17.38,74016.5,3.99,3.45,3.53,0,*79
1531598809.28,63600,17.38,74020.8,4.01,3.45,3.45,0,*7B
1531598810.53,63601,17.38,74020.5,4.01,3.53,3.45,0,*7D
1531598811.79,63602,17.44,74024.0,4.01,3.45,3.45,0,*79
1531598812.96,63603,17.38,74026.3,4.03,3.55,3.55,0,*7A
1531598814.15,63604,17.44,74026.3,4.03,3.49,3.55,0,*70
1531598815.35,63605,17.38,74024.8,4.03,3.49,3.59,0,*7D
1531598816.6,63606,17.38,74024.8,4.01,3.45,3.53,0,*7A
1531598817.85,63607,17.44,74026.3,4.01,3.45,3.53,0,*7B
1531598819.11,63608,17.38,74022.3,4.01,3.41,3.45,0,*77
1531598820.37,63609,17.38,74026.0,4.01,3.45,3.45,0,*72
1531598821.63,63610,17.38,74026.8,4.01,3.45,3.45,0,*7A
1531598822.89,63611,17.38,74024.3,4.01,3.53,3.41,0,*78
1531598824.14,63612,17.44,74026.8,4.01,3.53,3.45,0,*7F
1531598825.37,63613,17.38,74026.8,4.03,3.49,3.45,0,*77
1531598826.59,63614,17.38,74028.0,4.03,3.49,3.49,0,*7C
1531598827.81,63615,17.38,74028.3,4.03,3.49,3.49,0,*7D
1531598829.04,63616,17.38,74024.3,4.03,3.45,3.49,0,*72
1531598830.3,63617,17.44,74026.8,4.01,3.45,3.45,0,*7D
1531598831.56,63618,17.38,74024.3,4.01,3.45,3.41,0,*76
1531598832.82,63619,17.38,74026.5,4.01,3.45,3.45,0,*73
1531598834.05,63620,17.38,74024.5,4.03,3.45,3.45,0,*7B
1531598835.31,63621,17.38,74024.5,4.01,3.41,3.41,0,*78
1531598836.57,63622,17.38,74026.0,4.01,3.45,3.45,0,*7B
1531598837.79,63623,17.38,74022.8,4.03,3.49,3.49,0,*78
1531598839.02,63624,17.44,74024.8,4.03,3.45,3.49,0,*73
1531598840.25,63625,17.44,74026.3,4.03,3.49,3.45,0,*72
1531598841.47,63626,17.44,74024.5,4.03,3.45,3.49,0,*71
1531598842.73,63627,17.44,74022.8,4.01,3.33,3.41,0,*7B
1531598843.96,63628,17.38,74022.3,4.03,3.45,3.45,0,*73
1531598845.19,63629,17.38,74018.8,4.03,3.49,3.49,0,*72
1531598846.41,63630,17.38,74018.5,4.03,3.45,3.49,0,*76
1531598847.64,63631,17.44,74016.8,4.03,3.45,3.33,0,*7A
1531598848.87,63632,17.38,74012.0,4.03,3.45,3.37,0,*7D
1531598850.09,63633,17.38,74014.8,4.03,3.45,3.37,0,*7C
1531598851.3,63634,17.38,74012.0,4.01,3.29,3.29,0,*7C
1531598852.53,63635,17.38,74014.8,4.03,3.33,3.33,0,*7F
1531598853.76,63636,17.38,74012.0,4.01,3.29,3.33,0,*75
1531598854.96,63637,17.38,74016.5,4.03,3.33,3.29,0,*76
1531598856.18,63638,17.44,74026.5,4.03,3.37,3.37,0,*72
1531598857.41,63639,17.44,74030.3,4.03,3.33,3.33,0,*73
1531598858.62,63640,17.44,74030.0,4.01,3.29,3.29,0,*7F
1531598859.85,63641,17.38,74024.5,4.03,3.37,3.33,0,*78
1531598861.07,63642,17.38,74030.3,4.03,3.33,3.33,0,*7F
1531598862.28,63643,17.38,74028.3,4.01,3.29,3.29,0,*7C
1531598863.5,63644,17.38,74028.0,4.03,3.37,3.37,0,*79
1531598864.77,63645,17.38,74032.3,4.01,3.45,3.41,0,*7E
1531598866.03,63646,17.38,74034.5,4.01,3.41,3.45,0,*7D
1531598867.29,63647,17.38,74036.8,4.01,3.41,3.41,0,*78
1531598868.51,63648,17.38,74034.3,4.03,3.49,3.37,0,*7C
1531598869.72,63649,17.38,74032.0,4.01,3.29,3.29,0,*76
1531598870.93,63650,17.38,74030.3,4.01,3.29,3.29,0,*7E
1531598872.16,63651,17.38,74028.8,4.03,3.37,3.33,0,*79
1531598873.39,63652,17.38,74028.5,4.03,3.37,3.33,0,*7A
1531598874.61,63653,17.44,74040.5,4.01,3.33,3.29,0,*76
1531598875.87,63654,17.38,74042.8,4.01,3.33,3.41,0,*7F
1531598877.13,63655,17.38,74040.3,4.01,3.33,3.45,0,*7A
1531598878.36,63656,17.38,74036.3,4.01,3.33,3.29,0,*73
1531598879.58,63657,17.38,74038.3,4.03,3.45,3.37,0,*7E
1531598880.84,63658,17.38,74032.5,4.01,3.41,3.33,0,*73
1531598882.07,63659,17.38,74034.5,4.03,3.45,3.45,0,*75
1531598883.33,63660,17.38,74034.8,4.01,3.45,3.45,0,*7D
1531598884.52,63661,17.44,74034.8,4.03,3.49,3.55,0,*73
1531598885.78,63662,17.38,74036.8,4.01,3.41,3.45,0,*7B
1531598887.04,63663,17.38,74038.5,4.01,3.45,3.45,0,*7E
1531598888.27,63664,17.38,74038.3,4.03,3.49,3.49,0,*7B
1531598889.5,63665,17.38,74036.8,4.03,3.45,3.45,0,*7A
1531598890.72,63666,17.38,74036.8,4.03,3.45,3.37,0,*7C
1531598891.99,63667,17.38,74032.8,4.01,3.41,3.41,0,*7A
1531598893.21,63668,17.38,74036.0,4.03,3.49,3.45,0,*7B
1531598894.44,63669,17.44,74042.0,4.03,3.45,3.37,0,*73
1531598895.66,63670,17.44,74040.5,4.03,3.49,3.49,0,*7E
1531598896.89,63671,17.38,74038.5,4.03,3.49,3.45,0,*73
1531598898.14,63672,17.38,74038.0,4.01,3.53,3.45,0,*79
1531598899.4,63673,17.38,74036.8,4.01,3.53,3.41,0,*7C
1531598900.63,63674,17.38,74036.0,4.03,3.45,3.45,0,*7A
1531598901.85,63675,17.38,74034.3,4.03,3.45,3.49,0,*77
1531598903.08,63676,17.44,74038.5,4.03,3.45,3.45,0,*78
1531598904.31,63677,17.38,74038.8,4.03,3.49,3.49,0,*79
1531598905.57,63678,17.38,74034.3,4.01,3.41,3.45,0,*70
1531598906.79,63679,17.38,74034.5,4.03,3.49,3.45,0,*7B
1531598908.02,63680,17.38,74036.8,4.03,3.45,3.45,0,*71
1531598909.25,63681,17.38,74038.3,4.03,3.49,3.49,0,*70
1531598910.47,63682,17.38,74038.0,4.03,3.45,3.49,0,*7F
1531598911.7,63683,17.38,74038.0,4.03,3.49,3.49,0,*72
1531598912.96,63684,17.38,74034.3,4.01,3.41,3.45,0,*73
1531598914.18,63685,17.38,74034.8,4.03,3.49,3.49,0,*74
1531598915.38,63686,17.44,74038.5,4.03,3.49,3.55,0,*7A
1531598916.6,63687,17.38,74036.5,4.05,3.53,3.59,0,*7A
1531598917.8,63688,17.38,74036.3,4.05,3.59,3.59,0,*7F
1531598919.05,63689,17.44,74038.3,4.05,3.53,3.53,0,*7E
1531598920.3,63690,17.38,74036.3,4.05,3.53,3.53,0,*76
1531598921.5,63691,17.38,74036.5,4.03,3.55,3.49,0,*7C
1531598922.72,63692,17.38,74036.8,4.07,3.53,3.49,0,*7D
1531598923.95,63693,17.38,74038.8,4.03,3.45,3.49,0,*7F
1531598925.18,63694,17.38,74038.0,4.03,3.49,3.45,0,*78
1531598926.43,63695,17.38,74034.5,4.05,3.53,3.49,0,*78
1531598927.68,63696,17.38,74034.3,4.05,3.49,3.49,0,*70
1531598928.93,63697,17.38,74042.0,4.05,3.53,3.53,0,*71
1531598930.16,63698,17.38,74040.5,4.05,3.59,3.49,0,*7F
1531598931.36,63699,17.38,74042.0,4.03,3.49,3.55,0,*74
1531598932.58,63700,17.38,74040.3,4.03,3.49,3.49,0,*78
1531598933.81,63701,17.38,74040.3,4.03,3.45,3.49,0,*75
1531598935.04,63702,17.38,74042.5,4.03,3.45,3.49,0,*76
1531598936.26,63703,17.38,74046.8,4.07,3.53,3.49,0,*74
1531598937.51,63704,17.38,74044.0,4.05,3.53,3.49,0,*71